Accueil
METAR-TAF:

METAR-TAF

Aéroports :

Aéroport de Toussus-le-Noble

Toussus-le-Noble, France

latitude: 48-46N, longitude: 002-06E, altitude: 164 m

Observation

Le bulletin a été fait il y a 33 minutes, à 05:00 UTC
Vent calme
Température 12°C
Humidité 76%
Pression 1024 hPa
Visibilité 10 km ou plus
pas de nuages en-dessous de 1500 mètres et pas de cumulonimbus.

METAR: LFPN 240500Z AUTO 00000KT CAVOK 12/08 Q1024

Heure: 07:33 (05:33 UTC)

Prévision

Le bulletin a été fait il y a 12 heures et 33 minutes, à 17:00 UTC
Prévision valable du 23 à 18 UTC au 24 à 03 UTC
Vent 10 kt de nord/nord-est
Visibilité 10 km ou plus
pas de nuages en-dessous de 1500 mètres et pas de cumulonimbus.

TAF: LFPN 231700Z 2318/2403 03010KT CAVOK

Observations et prévisions météorologiques de plus de 4000 aéroports (messages METAR et TAF).

Les stations disponibles sont représentées par des disques jaunes et rouges sur la carte.

Passer la souris dessus pour voir le nom de la station.

Cliquer dessus pour voir les observations et prévisions météorologiques.

Pour changer de carte: cliquez sur les boutons verts avec une croix noire pour zoomer, sur le bouton vert avec un tiret pour effectuer un zoom arrière, ou sur les flèches vertes pour les cartes adjacentes.


METAR-TAF: